Flag for U.S.A. Weather past 2 weeks in Austin, Texas, U.S.A.

Now
72 °F

Clear.


Feels Like: 77 °F
Forecast: 58 / 87 °F
Wind: 3 mph from North

Location: Camp Mabry / Austin City


UV Index: 7 (High)

Visibility: 10 mi


Pressure: 29.90 "Hg

Humidity: 37%

Dew point: 44 °F

Location of AustinLocation

Historic Weather in Austin

°F

Austin temperature yesterday

Maximum temperature yesterday: 87 °F (at 2:51 PM)
Minimum temperature yesterday: 61 °F (at 6:51 AM)
Average temperature yesterday: 74 °F

Past Weeks' High & Low Weather Summary

 TemperatureHumidityPressure
High87 °F (Apr 23, 2:51 PM)96% (Apr 18, 1:51 AM)30.37 "Hg (Apr 18, 1:51 AM)
Low40 °F (Apr 15, 6:51 AM)19% (Apr 15, 12:51 PM)29.62 "Hg (Apr 13, 4:51 PM)
Average68 °F66%29.99 "Hg
* Reported Apr 9 9:51 PM — Apr 24 9:51 PM, Austin, Weather by CustomWeather, © 2014

Note: Actual official high and low records may vary slightly from our data, if they occured in-between our weather recording intervals... More about our weather records

Advertising

Historic Weather Conditions — Data for Previous 24 hours

 ConditionsComfort  
Time TempWeatherWind HumidityBarometerVisibility
9:51 PM
Apr 24
74 °FClear.No wind40%29.88 "Hg10 mi
8:51 PM78 °FSunny.No wind60%29.85 "Hg10 mi
7:51 PM82 °FSunny.3 mph55%29.81 "Hg10 mi
6:51 PM84 °FSunny.5 mph51%29.79 "Hg10 mi
5:51 PM86 °FSunny.5 mph48%29.78 "Hg10 mi
4:51 PM85 °FSunny.7 mph51%29.77 "Hg10 mi
3:51 PM87 °FSunny.3 mph50%29.78 "Hg10 mi
2:51 PM85 °FSunny.3 mph50%29.80 "Hg10 mi
1:51 PM82 °FPassing clouds.No wind56%29.83 "Hg10 mi
12:51 PM80 °FScattered clouds.6 mph62%29.84 "Hg10 mi
11:51 AM74 °FOvercast.7 mph74%29.86 "Hg9 mi
10:51 AM71 °FOvercast.6 mph78%29.86 "Hg10 mi
9:51 AM70 °FOvercast.7 mph79%29.85 "Hg10 mi
9:02 AM69 °FMostly cloudy.7 mph81%29.87 "Hg10 mi
7:51 AM67 °FOvercast.6 mph87%29.80 "Hg9 mi
6:51 AM67 °FMostly cloudy.5 mph87%29.78 "Hg10 mi
5:51 AM67 °FMostly cloudy.5 mph87%29.78 "Hg10 mi
4:51 AM67 °FMostly cloudy.7 mph85%29.76 "Hg10 mi
3:51 AM67 °FPassing clouds.8 mph85%29.77 "Hg10 mi
2:51 AM68 °FOvercast.7 mph82%29.76 "Hg10 mi
1:51 AM69 °FPassing clouds.9 mph79%29.77 "Hg10 mi
12:58 AM69 °FPassing clouds.12 mph79%29.80 "Hg10 mi
11:51 PM
Apr 23
71 °FOvercast.12 mph76%29.77 "Hg10 mi
Weather by CustomWeather, © 2014

See weather overview